Spokane Fairchild, WA
on Sunday, February 17, 2013

Sunday
Previous Day Next Day
Daily Summary
 ActualAverage (KGEG)Record (KGEG)
Temperature
Mean Temperature °F / °C 33°F / 1°C  
Max Temperature 41°F / 5°C 40°F / 4°C 58°F / 14°C (1930)
Min Temperature 28°F / -2°C 26°F / -3°C -5°F / -20°C (1881)
Degree Days
Heating Degree Days 30 32  
Month to date heating degree days 558  
Since 1 July heating degree days 4491  
Cooling Degree Days 0 0  
Month to date cooling degree days 0  
Year to date cooling degree days 0  
Moisture
Dew Point 27°F / -3°C   
Average Humidity 72    
Maximum Humidity 93    
Minimum Humidity 57    
Precipitation
Precipitation 0.00 in / 0.00 cm 0.05 in / 1.27 cm 0.71 in / 1.80 cm (1940)
Month to date precipitation 0.80  
Year to date precipitation 2.59  
Snow
Snow 0.00 in / 0.00 cm 0.30 in / 0.76 cm 7.60 in / 19.30 cm (1989)
Month to date snowfall 4.5  
Since 1 July snowfall 38.0  
Snow Depth in / cm   
Wind
Wind Speed 11 mph / 18 km/h   
Max Wind Speed 16 mph / 26 km/h   
Max Gust Speed mph / km/h   
Visibility 10 miles / 16 kilometers   
Events Snow   

Key: T is trace of precipitation, MM is missing value
Source: NWS Daily Summary
Time(PST)TemperatureDew PointHumidity Pressure Visibility Wind DirectionWind SpeedGust SpeedPrecipitationEvents Conditions
12:58 AM 32.5°F / 0.3°C 28.2°F / -2.1°C 84% 29.99 in / 1015.4 hPa 10.0 miles / 16.1 kilometers SW 10.4 mph / 16.7 km/h - N/A   Mostly Cloudy
1:58 AM 32.2°F / 0.1°C 27.5°F / -2.5°C 83% 30.01 in / 1016.1 hPa 10.0 miles / 16.1 kilometers SW 10.4 mph / 16.7 km/h - N/A   Overcast
2:47 AM 32.0°F / 0.0°C 28.4°F / -2.0°C 87% 29.96 in / 1014.4 hPa 10.0 miles / 16.1 kilometers WSW 15.0 mph / 24.1 km/h - N/A   Overcast
2:58 AM 31.6°F / -0.2°C 28.0°F / -2.2°C 87% 30.02 in / 1016.4 hPa 6.0 miles / 9.7 kilometers West 15.0 mph / 24.1 km/h - 0.00 in / 0.0 cm Snow Light Snow
3:03 AM 32.0°F / 0.0°C 28.4°F / -2.0°C 87% 29.96 in / 1014.4 hPa 3.0 miles / 4.8 kilometers West 15.0 mph / 24.1 km/h - N/A Snow Light Snow
3:13 AM 32.0°F / 0.0°C 28.4°F / -2.0°C 87% 29.96 in / 1014.4 hPa 3.0 miles / 4.8 kilometers West 6.9 mph / 11.1 km/h - N/A Snow Light Snow
3:30 AM 32.0°F / 0.0°C 30.2°F / -1.0°C 93% 29.95 in / 1014.1 hPa 10.0 miles / 16.1 kilometers SSW 8.1 mph / 13.0 km/h - N/A   Overcast
3:41 AM 32.0°F / 0.0°C 30.2°F / -1.0°C 93% 29.96 in / 1014.4 hPa 10.0 miles / 16.1 kilometers SSW 4.6 mph / 7.4 km/h - N/A Snow Light Snow
3:46 AM 33.8°F / 1.0°C 28.4°F / -2.0°C 81% 29.95 in / 1014.1 hPa 10.0 miles / 16.1 kilometers South 4.6 mph / 7.4 km/h - N/A Snow Light Snow
3:55 AM 32.0°F / 0.0°C 28.4°F / -2.0°C 87% 29.96 in / 1014.4 hPa 10.0 miles / 16.1 kilometers SW 8.1 mph / 13.0 km/h - N/A   Overcast
3:58 AM 32.5°F / 0.3°C 28.2°F / -2.1°C 84% 30.02 in / 1016.4 hPa 10.0 miles / 16.1 kilometers SSW 8.1 mph / 13.0 km/h - 0.00 in / 0.0 cm   Overcast
4:58 AM 30.9°F / -0.6°C 26.8°F / -2.9°C 85% 30.04 in / 1017.0 hPa 10.0 miles / 16.1 kilometers SSW 6.9 mph / 11.1 km/h - N/A   Overcast
5:58 AM 29.3°F / -1.5°C 25.3°F / -3.7°C 85% 30.05 in / 1017.5 hPa 10.0 miles / 16.1 kilometers SW 8.1 mph / 13.0 km/h - N/A   Overcast
6:42 AM 28.4°F / -2.0°C 24.8°F / -4.0°C 86% 29.98 in / 1015.1 hPa 10.0 miles / 16.1 kilometers SW 8.1 mph / 13.0 km/h - N/A   Clear
6:53 AM 28.4°F / -2.0°C 24.8°F / -4.0°C 86% 29.98 in / 1015.1 hPa 10.0 miles / 16.1 kilometers SW 8.1 mph / 13.0 km/h - N/A   Clear
6:58 AM 28.4°F / -2.0°C 24.8°F / -4.0°C 86% 30.06 in / 1017.7 hPa 10.0 miles / 16.1 kilometers SW 9.2 mph / 14.8 km/h - 0.00 in / 0.0 cm   Clear
7:58 AM 30.7°F / -0.7°C 25.0°F / -3.9°C 79% 30.07 in / 1018.2 hPa 10.0 miles / 16.1 kilometers SW 6.9 mph / 11.1 km/h - N/A   Clear
8:26 AM 32.0°F / 0.0°C 24.8°F / -4.0°C 75% 30.00 in / 1015.8 hPa 10.0 miles / 16.1 kilometers WSW 12.7 mph / 20.4 km/h - N/A   Clear
8:36 AM 33.8°F / 1.0°C 24.8°F / -4.0°C 70% 30.01 in / 1016.1 hPa 10.0 miles / 16.1 kilometers WSW 13.8 mph / 22.2 km/h - N/A   Clear
8:58 AM 34.7°F / 1.5°C 26.2°F / -3.2°C 71% 30.07 in / 1018.3 hPa 10.0 miles / 16.1 kilometers WSW 13.8 mph / 22.2 km/h - 0.00 in / 0.0 cm   Clear
9:00 AM 35.6°F / 2.0°C 26.6°F / -3.0°C 70% 30.01 in / 1016.1 hPa 10.0 miles / 16.1 kilometers WSW 15.0 mph / 24.1 km/h - N/A   Clear
9:06 AM 35.6°F / 2.0°C 26.6°F / -3.0°C 70% 30.01 in / 1016.1 hPa 10.0 miles / 16.1 kilometers WSW 13.8 mph / 22.2 km/h - N/A   Clear
9:09 AM 35.6°F / 2.0°C 26.6°F / -3.0°C 70% 30.01 in / 1016.1 hPa 10.0 miles / 16.1 kilometers WSW 15.0 mph / 24.1 km/h - N/A   Clear
9:20 AM 35.6°F / 2.0°C 26.6°F / -3.0°C 70% 30.01 in / 1016.1 hPa 10.0 miles / 16.1 kilometers West 12.7 mph / 20.4 km/h - N/A   Clear
9:50 AM 37.4°F / 3.0°C 26.6°F / -3.0°C 65% 30.02 in / 1016.5 hPa 10.0 miles / 16.1 kilometers West 16.1 mph / 25.9 km/h - N/A   Clear
9:58 AM 37.6°F / 3.1°C 26.8°F / -2.9°C 65% 30.09 in / 1018.7 hPa 10.0 miles / 16.1 kilometers West 11.5 mph / 18.5 km/h - 0.00 in / 0.0 cm   Clear
10:08 AM 37.4°F / 3.0°C 26.6°F / -3.0°C 65% 30.02 in / 1016.5 hPa 10.0 miles / 16.1 kilometers West 15.0 mph / 24.1 km/h - N/A   Clear
10:45 AM 39.2°F / 4.0°C 26.6°F / -3.0°C 61% 30.03 in / 1016.8 hPa 10.0 miles / 16.1 kilometers WSW 15.0 mph / 24.1 km/h - N/A   Clear
10:52 AM 39.2°F / 4.0°C 26.6°F / -3.0°C 61% 30.03 in / 1016.8 hPa 10.0 miles / 16.1 kilometers West 15.0 mph / 24.1 km/h - N/A   Clear
10:58 AM 39.6°F / 4.2°C 27.0°F / -2.8°C 61% 30.09 in / 1019.0 hPa 10.0 miles / 16.1 kilometers West 13.8 mph / 22.2 km/h - 0.00 in / 0.0 cm   Clear
11:02 AM 41.0°F / 5.0°C 26.6°F / -3.0°C 57% 30.03 in / 1016.8 hPa 10.0 miles / 16.1 kilometers West 13.8 mph / 22.2 km/h - N/A   Clear
11:12 AM 39.2°F / 4.0°C 26.6°F / -3.0°C 61% 30.04 in / 1017.2 hPa 10.0 miles / 16.1 kilometers WSW 13.8 mph / 22.2 km/h - N/A   Clear
11:17 AM 41.0°F / 5.0°C 26.6°F / -3.0°C 57% 30.04 in / 1017.2 hPa 10.0 miles / 16.1 kilometers WSW 15.0 mph / 24.1 km/h - N/A   Clear
11:19 AM 41.0°F / 5.0°C 26.6°F / -3.0°C 57% 30.04 in / 1017.2 hPa 10.0 miles / 16.1 kilometers West 13.8 mph / 22.2 km/h - N/A   Clear
11:24 AM 41.0°F / 5.0°C 28.4°F / -2.0°C 61% 30.04 in / 1017.2 hPa 10.0 miles / 16.1 kilometers West 15.0 mph / 24.1 km/h - N/A   Clear
11:27 AM 41.0°F / 5.0°C 26.6°F / -3.0°C 57% 30.04 in / 1017.2 hPa 10.0 miles / 16.1 kilometers West 16.1 mph / 25.9 km/h - N/A   Clear
11:58 AM 41.0°F / 5.0°C 27.1°F / -2.7°C 58% 30.10 in / 1019.2 hPa 10.0 miles / 16.1 kilometers West 15.0 mph / 24.1 km/h - 0.00 in / 0.0 cm   Clear
12:34 PM 41.0°F / 5.0°C 28.4°F / -2.0°C 61% 30.03 in / 1016.8 hPa 10.0 miles / 16.1 kilometers SW 11.5 mph / 18.5 km/h - N/A   Scattered Clouds
12:50 PM 41.0°F / 5.0°C 28.4°F / -2.0°C 61% 30.03 in / 1016.8 hPa 10.0 miles / 16.1 kilometers WSW 13.8 mph / 22.2 km/h - N/A   Mostly Cloudy
12:58 PM 40.8°F / 4.9°C 28.9°F / -1.7°C 63% 30.09 in / 1018.8 hPa 10.0 miles / 16.1 kilometers WSW 12.7 mph / 20.4 km/h - 0.00 in / 0.0 cm   Mostly Cloudy
12:59 PM 41.0°F / 5.0°C 30.2°F / -1.0°C 65% 30.03 in / 1016.8 hPa 10.0 miles / 16.1 kilometers WSW 12.7 mph / 20.4 km/h - N/A   Light Drizzle
1:11 PM 41.0°F / 5.0°C 28.4°F / -2.0°C 61% 30.03 in / 1016.8 hPa 10.0 miles / 16.1 kilometers SW 10.4 mph / 16.7 km/h - N/A   Mostly Cloudy
1:44 PM 41.0°F / 5.0°C 28.4°F / -2.0°C 61% 30.03 in / 1016.8 hPa 10.0 miles / 16.1 kilometers WSW 11.5 mph / 18.5 km/h - N/A   Mostly Cloudy
1:51 PM 41.0°F / 5.0°C 28.4°F / -2.0°C 61% 30.03 in / 1016.8 hPa 10.0 miles / 16.1 kilometers West 12.7 mph / 20.4 km/h - N/A   Scattered Clouds
1:58 PM 40.5°F / 4.7°C 28.6°F / -1.9°C 63% 30.09 in / 1018.8 hPa 10.0 miles / 16.1 kilometers WSW 11.5 mph / 18.5 km/h - 0.00 in / 0.0 cm   Scattered Clouds
2:17 PM 41.0°F / 5.0°C 28.4°F / -2.0°C 61% 30.02 in / 1016.5 hPa 10.0 miles / 16.1 kilometers West 15.0 mph / 24.1 km/h - N/A   Scattered Clouds
2:31 PM 41.0°F / 5.0°C 28.4°F / -2.0°C 61% 30.03 in / 1016.8 hPa 10.0 miles / 16.1 kilometers West 12.7 mph / 20.4 km/h - N/A   Mostly Cloudy
2:58 PM 40.8°F / 4.9°C 28.4°F / -2.0°C 61% 30.09 in / 1018.8 hPa 10.0 miles / 16.1 kilometers West 12.7 mph / 20.4 km/h - 0.00 in / 0.0 cm   Overcast
3:58 PM 39.6°F / 4.2°C 27.5°F / -2.5°C 62% 30.09 in / 1019.0 hPa 10.0 miles / 16.1 kilometers WSW 15.0 mph / 24.1 km/h - N/A   Clear
4:58 PM 37.9°F / 3.3°C 26.8°F / -2.9°C 64% 30.09 in / 1019.0 hPa 10.0 miles / 16.1 kilometers WSW 9.2 mph / 14.8 km/h - N/A   Mostly Cloudy
5:58 PM 32.4°F / 0.2°C 25.3°F / -3.7°C 75% 30.12 in / 1019.9 hPa 10.0 miles / 16.1 kilometers West 9.2 mph / 14.8 km/h - N/A   Clear
6:12 PM 32.0°F / 0.0°C 24.8°F / -4.0°C 75% 30.04 in / 1017.2 hPa 10.0 miles / 16.1 kilometers SW 9.2 mph / 14.8 km/h - N/A   Clear
6:27 PM 32.0°F / 0.0°C 24.8°F / -4.0°C 75% 30.04 in / 1017.2 hPa 10.0 miles / 16.1 kilometers WSW 5.8 mph / 9.3 km/h - N/A   Clear
6:58 PM 32.0°F / 0.0°C 24.8°F / -4.0°C 75% 30.12 in / 1019.9 hPa 10.0 miles / 16.1 kilometers WSW 6.9 mph / 11.1 km/h - 0.00 in / 0.0 cm   Partly Cloudy
7:39 PM 32.0°F / 0.0°C 23.0°F / -5.0°C 69% 30.05 in / 1017.5 hPa 10.0 miles / 16.1 kilometers SSW 2.3 mph / 3.7 km/h - N/A   Scattered Clouds
7:58 PM 33.1°F / 0.6°C 25.0°F / -3.9°C 72% 30.13 in / 1020.1 hPa 10.0 miles / 16.1 kilometers NW 3.5 mph / 5.6 km/h - 0.00 in / 0.0 cm   Mostly Cloudy
7:59 PM 32.0°F / 0.0°C 24.8°F / -4.0°C 75% 30.05 in / 1017.5 hPa 10.0 miles / 16.1 kilometers NW 4.6 mph / 7.4 km/h - N/A   Overcast
8:52 PM 32.0°F / 0.0°C 24.8°F / -4.0°C 75% 30.06 in / 1017.8 hPa 10.0 miles / 16.1 kilometers SW 9.2 mph / 14.8 km/h - N/A   Mostly Cloudy
8:58 PM 32.9°F / 0.5°C 25.2°F / -3.8°C 73% 30.13 in / 1020.2 hPa 10.0 miles / 16.1 kilometers SW 9.2 mph / 14.8 km/h - 0.00 in / 0.0 cm   Mostly Cloudy
9:20 PM 32.0°F / 0.0°C 24.8°F / -4.0°C 75% 30.06 in / 1017.8 hPa 10.0 miles / 16.1 kilometers SW 8.1 mph / 13.0 km/h - N/A   Partly Cloudy
9:58 PM 32.0°F / -0.0°C 25.2°F / -3.8°C 76% 30.13 in / 1020.1 hPa 10.0 miles / 16.1 kilometers WSW 8.1 mph / 13.0 km/h - 0.00 in / 0.0 cm   Clear
10:10 PM 32.0°F / 0.0°C 24.8°F / -4.0°C 75% 30.06 in / 1017.8 hPa 10.0 miles / 16.1 kilometers WSW 5.8 mph / 9.3 km/h - N/A   Clear
10:33 PM 32.0°F / 0.0°C 24.8°F / -4.0°C 75% 30.06 in / 1017.8 hPa 10.0 miles / 16.1 kilometers SSW 6.9 mph / 11.1 km/h - N/A   Clear
10:37 PM 32.0°F / 0.0°C 24.8°F / -4.0°C 75% 30.06 in / 1017.8 hPa 10.0 miles / 16.1 kilometers SW 6.9 mph / 11.1 km/h - N/A   Clear
10:58 PM 32.7°F / 0.4°C 25.0°F / -3.9°C 73% 30.13 in / 1020.1 hPa 10.0 miles / 16.1 kilometers SSW 5.8 mph / 9.3 km/h - 0.00 in / 0.0 cm   Clear
11:01 PM 32.0°F / 0.0°C 24.8°F / -4.0°C 75% 30.06 in / 1017.8 hPa 10.0 miles / 16.1 kilometers SW 5.8 mph / 9.3 km/h - N/A   Clear
11:35 PM 32.0°F / 0.0°C 24.8°F / -4.0°C 75% 30.05 in / 1017.5 hPa 10.0 miles / 16.1 kilometers South 3.5 mph / 5.6 km/h - N/A   Clear
11:44 PM 30.2°F / -1.0°C 24.8°F / -4.0°C 80% 30.05 in / 1017.5 hPa 10.0 miles / 16.1 kilometers SSW 3.5 mph / 5.6 km/h - N/A   Clear
11:58 PM 29.3°F / -1.5°C 24.4°F / -4.2°C 82% 30.12 in / 1019.7 hPa 10.0 miles / 16.1 kilometers SW 3.5 mph / 5.6 km/h - 0.00 in / 0.0 cm   Clear
Moon Phase
Feb. 17 Feb. 17 Feb. 25 Mar. 04 Mar. 11
Sunrise:06:52 AM (PST) Moon Rise:10:14 AM (PST)2/17
Sunset:05:17 PM (PST) Moon Set:12:50 AM (PST)2/17

Copyright © 2014 The Weather Underground, Inc.